This is the latest recevied weather packets stored in our database for station/object K0WXC-1. If no packets are shown the sender has not sent any weather packets the latest 10 day(s).
| Time | Temp. | Humidity | Pressure | Rain* | Wind** | Luminosity | Snow |
|---|---|---|---|---|---|---|---|
| 1777746508 | 13.89° C | 35% | 1007 hPa | 0 mm | 0.45 m/s, 178° | - | - |
| 1777746448 | 13.89° C | 35% | 1007 hPa | 0 mm | 0.45 m/s, 178° | - | - |
| 1777746388 | 13.89° C | 35% | 1007 hPa | 0 mm | 0.45 m/s, 178° | - | - |
| 1777746328 | 13.89° C | 36% | 1007.2 hPa | 0 mm | 1.34 m/s, 322° | - | - |
| 1777746268 | 13.89° C | 36% | 1007.2 hPa | 0 mm | 1.34 m/s, 322° | - | - |
| 1777746208 | 13.89° C | 36% | 1007.2 hPa | 0 mm | 1.34 m/s, 322° | - | - |
| 1777746148 | 13.89° C | 36% | 1007.2 hPa | 0 mm | 1.34 m/s, 322° | - | - |
| 1777746088 | 13.89° C | 36% | 1007.2 hPa | 0 mm | 1.34 m/s, 322° | - | - |
| 1777746028 | 14.44° C | 33% | 1007.2 hPa | 0 mm | 0.89 m/s, 86° | - | - |
| 1777745968 | 14.44° C | 33% | 1007.2 hPa | 0 mm | 0.89 m/s, 86° | - | - |
| 1777745908 | 14.44° C | 33% | 1007.2 hPa | 0 mm | 0.89 m/s, 86° | - | - |
| 1777745848 | 14.44° C | 33% | 1007.2 hPa | 0 mm | 0.89 m/s, 86° | - | - |
| 1777745788 | 14.44° C | 33% | 1007.2 hPa | 0 mm | 0.89 m/s, 86° | - | - |
| 1777745728 | 15° C | 31% | 1007 hPa | 0 mm | 2.68 m/s, 113° | - | - |
| 1777745668 | 15° C | 31% | 1007 hPa | 0 mm | 2.68 m/s, 113° | - | - |
| 1777745608 | 15° C | 31% | 1007 hPa | 0 mm | 2.68 m/s, 113° | - | - |
| 1777745549 | 15° C | 31% | 1007 hPa | 0 mm | 2.68 m/s, 113° | - | - |
| 1777745488 | 15° C | 31% | 1007 hPa | 0 mm | 2.68 m/s, 113° | - | - |
| 1777745428 | 14.44° C | 35% | 1007.1 hPa | 0 mm | 1.79 m/s, 205° | - | - |
| 1777745368 | 14.44° C | 35% | 1007.1 hPa | 0 mm | 1.79 m/s, 205° | - | - |
| 1777745308 | 14.44° C | 35% | 1007.1 hPa | 0 mm | 1.79 m/s, 205° | - | - |
| 1777745248 | 14.44° C | 35% | 1007.1 hPa | 0 mm | 1.79 m/s, 205° | - | - |
| 1777745188 | 14.44° C | 35% | 1007.1 hPa | 0 mm | 1.79 m/s, 205° | - | - |
| 1777745128 | 15° C | 35% | 1007.2 hPa | 0 mm | 2.24 m/s, 327° | - | - |
| 1777745068 | 15° C | 35% | 1007.2 hPa | 0 mm | 2.24 m/s, 327° | - | - |
* Rain latest hour (hover to see other rain measurements)
** Current wind speed in m/s (hover to see current wind gust speed)